Location: Dealu Mare
(46.0500°N, 22.8167°E)
Time: 08:10:52
(UTC+00:00)

SL-23 DEB - Pass Details

Date: 15 January 2026
Orbit: 423 x 3435 km, 51.4° (Epoch: 10 February)

Event Time Altitude Azimuth Distance (km) Brightness Sun altitude
Exits shadow 04:40:47 28° 262° (W) 838 4.2 -14.6°
Maximum altitude 04:42:16 65° 337° (NNW) 470 3.3 -14.3°
Drops below altitude 10° 04:45:33 10° 60° (ENE) 1,601 6.8 -13.8°
Sets 04:47:52 0° 64° (ENE) 2,636 8.1 -13.4°
